Location: Most
(50.5330°N, 13.6500°E)
Time: 05:48:26
(UTC+02:00)

ISS - Pass Details

Date: 25 May 2021
Orbit: 417 x 422 km, 51.6° (Epoch: 13 June)

Event Time Altitude Azimuth Distance (km) Brightness Sun altitude
Rises 23:48:41 0° 285° (WNW) 2,369 0.5 -16.5°
Reaches altitude 10° 23:50:58 10° 273° (W) 1,503 -0.7 -16.6°
Enters shadow 23:53:36 26° 223° (SW) 857 -2.5 -16.8°
